Simultaneous Nadir Overpasses (SNOs) Predictions

Prediction of SNOs between LANDSAT-8 and METOP-A Satellite Orbit:

Table of predicted SNOs for the next 14.0 days since TLE Epoch: 4/29/2016
Index Date (LANDSAT-8) Time (LANDSAT-8) Lat,Lon (LANDSAT-8) SZA (LANDSAT-8 ) Date (METOP-A) Time (METOP-A) Lat,Lon (METOP-A) SZA (METOP-A ) Distance(km) Time Diff (sec)
1 04/30/2016 10:30:17 -81.09,-118.65 111.78 04/30/2016 10:29:09 -81.10,-118.55 111.80 1.89 68
2 04/30/2016 11:19:42 81.13, 49.46 68.28 04/30/2016 11:19:48 81.12, 49.38 68.27 1.47 6
3 05/03/2016 06:04:34 -81.09, -52.25 112.61 05/03/2016 06:03:31 -81.10, -52.07 112.61 3.28 63
4 05/03/2016 06:53:59 81.12, 115.84 67.45 05/03/2016 06:54:10 81.12, 115.86 67.46 0.49 11
5 05/06/2016 01:38:51 -81.11, 14.47 113.36 05/06/2016 01:37:54 -81.11, 14.39 113.40 1.56 57
6
